Regional Weather Roundup
Issued by NWS

Home | Current Version | Previous Version | Graphics & Text | Print | Product List | Glossary On
Versions: 1 2 3 4 5 6 7 8 9 10 11 12 13 14 15 16 17 18 19 20 21 22 23 24 25 26 27 28 29 30 31 32 33 34 35 36 37 38 39 40 41 42 43 44 45 46 47 48 49 50
000
ASUS45 KTFX 270904
RWRMT
MONTANA HOURLY WEATHER ROUNDUP
NATIONAL WEATHER SERVICE GREAT FALLS MT
304 AM MDT FRI MAR 27 2015

NOTE: "FAIR" INDICATES FEW OR NO CLOUDS BELOW 12000 FEET WITH NO
SIGNIFICANT WEATHER AND/OR OBSTRUCTIONS TO VISIBILITY.

* THESE STATIONS ARE NOT UNDER NWS QUALITY CONTROL. THEY DO NOT
   REPORT WEATHER SUCH AS PRECIPITATION OR FOG.

MTZ001>007-043-271000-
WEST OF THE DIVIDE
CITY           SKY/WX    TMP DP  RH WIND       PRES   REMARKS
KALISPELL      FOG       30  30 100 CALM      30.22S VSB 1/2
MISSOULA       CLEAR     36  36 100 CALM      30.27S
BUTTE          PTCLDY    30  28  92 E3        30.28F
MULLAN PASS    CLEAR     41  36  82 SW6       30.24F
* ESSEX        N/A       34  33  96 N/A        N/A
* LINCOLN      N/A       47  37  68 W3         N/A
* LOOKOUT PASS N/A       38  38 100 SE2        N/A
* POLSON       N/A       42  40  93 N/A        N/A
* RONAN APT    CLEAR     37  36  96 N/A        N/A
* SEELEY LAKE  N/A       30  29  96 N/A        N/A
* THOMP F APT  CLEAR     37  27  67 NE1G8      N/A
$$

MTZ008-052>055-271000-
SOUTHWEST MONTANA
CITY           SKY/WX    TMP DP  RH WIND       PRES   REMARKS
BOZEMAN        PTCLDY    37  34  89 SE12      30.23F WCI  29
DILLON         PTCLDY    39  30  70 SW13      30.27S WCI  31
* W YELLOWSTON CLEAR     27  26  96 N/A        N/A
* THREE FORKS  PTCLDY    43  37  79 N/A        N/A
* TWIN BRIDGES PTCLDY    39  30  70 E5         N/A   WCI  35
* BOULDER HILL N/A       45  27  49 S1G9       N/A
* HOMESTAKE PS N/A       41  31  68 W6         N/A
* MONIDA PASS  N/A       32  30  92 N/A        N/A
* RAYNOLDS PAS N/A       33  21  61 S8         N/A   WCI  26
* WHITEHALL    N/A       51  34  52 NW7        N/A
* WISE RIVER   N/A       34  31  89 W1         N/A
$$

MTZ009>010-012-014-046-048-049-054-271000-
EAST SLOPES AND CENTRAL MONTANA
CITY           SKY/WX    TMP DP  RH WIND       PRES   REMARKS
CUT BANK       CLOUDY    52  36  55 W28       30.06R
GREAT FALLS    PTCLDY    46  36  68 SW14      30.09F
HELENA         PTCLDY    52  36  55 VRB3      30.19S
MALMSTROM AFB  PTCLDY    45  36  71 SW16      30.09F
* DEARBORN     N/A       49  35  59 SW3        N/A
* EAST GLACIER N/A       47  34  61 W32G44     N/A
* MONARCH      N/A       45  27  49 S15G21     N/A
* PENDROY      N/A       53  30  41 VRB5G11    N/A
* ROGERS PASS  N/A       45  35  68 SE13G24    N/A
$$

MTZ011-013-016-021-035-040-045-047-050-051-271000-
NORTH CENTRAL MONTANA
CITY           SKY/WX    TMP DP  RH WIND       PRES   REMARKS
HAVRE          MOCLDY    48  39  71 SW13      30.02S
LEWISTOWN      PTCLDY    45  36  71 NW6       30.10S
* N BAR RANCH  CLEAR     50  34  54 W8G18     30.09S
* MALTA APT    MOCLDY    41  32  70 N/A        N/A
* CHESTER      N/A       49  37  63 NW11G16    N/A
* DENTON       N/A       49  34  56 SW14       N/A
* GEYSER       N/A       51  30  45 W17G23     N/A
* JUDITH GAP   N/A       42  34  73 W9         N/A
* LOMA         N/A       48  36  63 W9         N/A
$$

MTZ017>020-022>027-061-062-271000-
NORTHEAST MONTANA
CITY           SKY/WX    TMP DP  RH WIND       PRES   REMARKS
GLASGOW        MOCLDY    37  30  76 SE7       29.96F WCI  32
GLENDIVE       CLOUDY    39  32  76 S12       30.01F WCI  32
JORDAN         PTCLDY    41  36  82 W6        29.99S
SIDNEY         CLOUDY    37  30  76 SE8       30.01F WCI  31
WOLF POINT     MOCLDY    34  30  85 CALM      29.98F
* BEAVER HILL  N/A       37  33  85 SE16       N/A   WCI  28
* CIRCLE       N/A       41  33  73 N/A        N/A
* LINDSAY DVD  N/A       34  31  89 E2G7       N/A
* NAVAJO       N/A       34  31  89 S8G14      N/A   WCI  27
* SACO         N/A       35  32  89 NE1        N/A
$$

MTZ028>042-056>058-271000-
SOUTHCENTRAL AND SOUTHEAST MONTANA
CITY           SKY/WX    TMP DP  RH WIND       PRES   REMARKS
BAKER          CLOUDY    37  30  76 SE12      30.04F WCI  29
BILLINGS       CLOUDY    54  36  51 W12       30.10S
LIVINGSTON     PTCLDY    52  34  50 W20       30.18S
MILES CITY     PTCLDY    39  32  76 S6        30.01S WCI  35
* LAUREL APT   PTCLDY    50  30  46 W6         N/A
* ROUNDUP APT  MOCLDY    52  34  50 W8         N/A
* ALZADA       N/A       34  30  85 E7         N/A   WCI  28
* HYSHAM       N/A       52  34  50 W8         N/A
* LAME DEER    N/A       46  37  71 W9G17      N/A
* REED POINT   N/A       54  32  43 W11G19     N/A
* ROSCOE HILL  N/A       53  16  23 W5G12      N/A
$$

REGIONAL REPORTS...DAKOTAS
CITY           SKY/WX    TMP DP  RH WIND       PRES   REMARKS
WILLISTON      CLOUDY    37  28  70 S6        30.03F WCI  32
DICKINSON      CLOUDY    34  28  79 S14       30.06F WCI  24
CROSBY         MOCLDY    34  30  85 S14       30.04F WCI  24
WATFORD CITY   CLEAR     36  28  73 SE8       30.04F WCI  30
BISMARCK       CLOUDY    25  18  75 S9        30.20F WCI  16
GRAND FORKS    CLEAR     12   9  88 W3        30.29S
FARGO          CLEAR     10   5  80 CALM      30.29S
BUFFALO SD     CLOUDY    34  30  85 S9        30.01F WCI  27
RAPID CITY     CLOUDY    34  27  76 SE8       30.11F WCI  27
$$

REGIONAL REPORTS...WYOMING/IDAHO/WASHINGTON
CITY           SKY/WX    TMP DP  RH WIND       PRES   REMARKS
GILLETTE       CLOUDY    45  39  80 W12       30.08F
SHERIDAN       PTCLDY    46  36  68 SW5       30.11R
CODY           PTCLDY    54  28  37 NW3G17    30.15R
YELLOWSTONE LA PTCLDY    25  21  85 CALM      30.37R
SALMON         CLEAR     36  30  79 CALM      30.31R
MULLAN PASS    CLEAR     41  36  82 SW6       30.24S
SAND POINT     FOG       37  37 100 CALM      30.21S VSB 1
SPOKANE        FAIR      46  45  96 NE6       30.17F

$$



USA.gov is the U.S. government's official web portal to all federal, state and local government web resources and services.